Tracking 29040 objects as of 15-Jun-2024
HD Live streaming from Space Station
objects crossing your sky now

STARLINK-3919

Track STARLINK-3919 now!
10-day predictions
STARLINK-3919 is classified as:


NORAD ID: 52580
Int'l Code: 2022-051AW
Perigee: 545.8 km
Apogee: 547.9 km
Inclination: 53.2 °
Period: 95.4 minutes
Semi major axis: 6917 km
RCS: Unknown
Launch date: May 13, 2022
Source: United States (US)
Launch site: AIR FORCE WESTERN TEST RANGE (AFWTR)
Your satellite tracking list
Your tracking list is empty




NASA's NSSDC Master Catalog

Two Line Element Set (TLE):
1 52580U 22051AW  24166.80325989  .00000666  00000-0  59908-4 0  9996
2 52580  53.2184  95.2670 0001525 101.8638 258.2525 15.08843322115837
Source of the keplerian elements: AFSPC